• Join FlightAware (Why Join?)
  • Login
  • US Flag 
09:32AM EDT


 

Airport Tracker/Info


-or-


 

Live Flight TrackerFlight Track Log ✈ SWA208 ✈ 26-Apr-2013 ✈ KSNA - KSFO

Flight Track Log - Related Links

Times and Time Zones

All times are in EDT time to prevent confusion due to time zone crossing. See the SWA208 flight status page for this flight to view local times or setup timezone preferences in your user account.

Time Position Orientation Groundspeed Altitude Reporting Facility
EDT Latitude Longitude Course Direction KTS MPH feet Rate Location/Type
11:30PM 33.6525 -117.8828 196° South 146 168 1,500  Level Los Angeles Center
11:31PM 33.6139 -117.8961 196° South 145 167 3,100 1,680 Climbing Los Angeles Center
11:32PM 33.5639 -117.8928 177° South 184 212 5,000 3,180 Climbing Los Angeles Center
11:33PM 33.4908 -117.8992 184° South 246 283 9,700 2,820 Climbing Los Angeles Center
11:34PM 33.4406 -117.9794 233° Southwest 289 333 10,900 2,580 Climbing Los Angeles Center
11:35PM 33.4333 -118.0928 266° West 342 394 15,100 3,000 Climbing Los Angeles Center
11:36PM 33.4672 -118.2050 290° West 366 421 17,100 2,340 Climbing Los Angeles Center
11:37PM 33.5422 -118.3133 310° West 415 478 19,900 2,820 Climbing Los Angeles Center
11:38PM 33.6178 -118.4269 309° West 427 491 22,900 2,520 Climbing Los Angeles Center
11:39PM 33.6961 -118.5456 308° West 441 507 25,200 1,500 Climbing Los Angeles Center
11:40PM 33.7772 -118.6636 310° West 452 520 26,000 660 Climbing Los Angeles Center
11:41PM 33.8575 -118.7839 309° West 457 526 26,600 1,080 Climbing Los Angeles Center
11:42PM 33.9372 -118.9047 309° West 460 529 28,300 1,140 Climbing Los Angeles Center
11:43PM 34.0325 -119.0478 309° West 458 527 29,000 300 Climbing Los Angeles Center
11:44PM 34.0958 -119.1433 309° West 457 526 29,000 480 Level Los Angeles Center
11:45PM 34.1900 -119.2864 309° West 455 524 30,000 540 Climbing Los Angeles Center
11:46PM 34.2692 -119.4069 308° West 459 528 30,200 1,260 Climbing Los Angeles Center
11:47PM 34.3611 -119.5100 317° Northwest 454 522 32,700 2,340 Climbing Los Angeles Center
11:48PM 34.4494 -119.6133 316° Northwest 443 510 35,100 1,560 Climbing Los Angeles Center
11:49PM 34.5553 -119.7347 317° Northwest 438 504 36,000 420 Climbing Los Angeles Center
11:50PM 34.6436 -119.8325 318° Northwest 439 505 36,000  Level Los Angeles Center
11:51PM 34.7325 -119.9328 317° Northwest 437 503 36,000  Level Los Angeles Center
11:52PM 34.8022 -120.0133 317° Northwest 435 501 36,000  Level Los Angeles Center
11:53PM 34.9083 -120.1347 317° Northwest 432 497 36,000  Level Los Angeles Center
11:54PM 34.9936 -120.2339 316° Northwest 434 499 36,000  Level Los Angeles Center
11:55PM 35.0800 -120.3339 317° Northwest 432 497 36,000  Level Los Angeles Center
11:57PM 35.1836 -120.4544 316° Northwest 433 498 36,000  Level Los Angeles Center
11:58PM 35.2706 -120.5575 316° Northwest 437 503 36,000  Level Los Angeles Center
11:59PM 35.3583 -120.6600 316° Northwest 439 505 36,000  Level Los Angeles Center
11:59PM 35.3836 -120.6908 315° West 440 506 36,000  Level Oakland Center
12:00AM 35.4731 -120.7972 316° Northwest 444 511 36,000  Level Oakland Center
12:01AM 35.5628 -120.9028 316° Northwest 446 513 36,000  Level Oakland Center
12:02AM 35.6528 -121.0089 316° Northwest 446 513 36,000  Level Oakland Center
12:03AM 35.7431 -121.1144 317° Northwest 449 517 36,000 -480 Level Oakland Center
12:04AM 35.8456 -121.2011 326° Northwest 447 514 35,100 -960 Descending Oakland Center
12:05AM 35.9481 -121.2869 326° Northwest 446 513 34,100 -960 Descending Oakland Center
12:06AM 36.0519 -121.3742 326° Northwest 450 518 33,200 -900 Descending Oakland Center
12:07AM 36.1542 -121.4619 325° Northwest 448 516 32,300 -960 Descending Oakland Center
12:08AM 36.2608 -121.5497 326° Northwest 457 526 31,300 -960 Descending Oakland Center
12:09AM 36.3642 -121.6425 324° Northwest 457 526 30,400 -1,740 Descending Oakland Center
12:10AM 36.4925 -121.7478 327° Northwest 461 531 27,900 -2,880 Descending Oakland Center
12:11AM 36.5500 -121.8000 324° Northwest 460 529 25,900 -3,540 Descending Northern Cal TRACON
12:12AM 36.6500 -121.8833 326° Northwest 447 514 22,500 -3,360 Descending Northern Cal TRACON
12:13AM 36.7500 -121.9667 326° Northwest 425 489 19,200 -3,120 Descending Northern Cal TRACON
12:14AM 36.8667 -122.0000 347° North 402 463 16,300 -2,880 Descending Northern Cal TRACON
12:14AM 36.9033 -122.0042 355° North 396 456 14,900 -2,880 Descending Oakland Center
12:15AM 37.0094 -122.0314 348° North 392 451 11,900 -2,100 Descending Oakland Center
12:16AM 37.1050 -122.0581 347° North 362 417 10,700 -1,020 Descending Oakland Center
12:17AM 37.1906 -122.0808 348° North 325 374 9,900 -1,200 Descending Oakland Center
12:18AM 37.2678 -122.0997 349° North 289 333 8,300 -1,440 Descending Oakland Center
12:19AM 37.3583 -122.1261 347° North 279 321 7,000 -1,140 Descending Oakland Center
12:20AM 37.4308 -122.1375 353° North 265 305 6,000 -1,080 Descending Oakland Center
12:21AM 37.5000 -122.1272 North 250 288 4,900 -1,020 Descending Oakland Center
12:22AM 37.5417 -122.1758 317° Northwest 231 266 4,000 -1,200 Descending Oakland Center
12:23AM 37.5617 -122.2317 294° West 193 222 2,500 -1,380 Descending Oakland Center
12:24AM 37.5817 -122.2842 296° West 177 204 1,300 -1,020 Descending Oakland Center
12:25AM 37.6008 -122.3311 297° West 165 190 500 -600 Descending Oakland Center
12:26AM 37.6164 -122.3686 298° West 156 180 200 -300 Descending Oakland Center
12:28AM 37.6167 -122.3667 322° Northwest  Level FlightAware Approximate
12:35AM 37.6191 -122.3752 322° Northwest  Level Estimated